Regional Weather Roundup
Issued by NWS

Home | Current Version | Previous Version | Text Only | Print | Product List | Glossary On
Versions: 1 2 3 4 5 6 7 8 9 10 11 12 13 14 15 16 17 18 19 20 21 22 23 24 25 26 27 28 29 30 31 32 33 34 35 36 37 38 39 40 41 42 43 44 45 46 47 48 49 50
511
ASUS43 KDTX 282010
RWRMI
MICHIGAN HOURLY REGIONAL WEATHER ROUNDUP
NATIONAL WEATHER SERVICE DETROIT/PONTIAC MI
400 PM EDT WED SEP 28 2016

NOTE: "FAIR" INDICATES FEW OR NO CLOUDS BELOW 12,000 FEET WITH NO
SIGNIFICANT WEATHER AND/OR OBSTRUCTION TO VISIBILITY.

MIZ047>049-052>055-059>063-066>070-074>076-081>083-282100-
SOUTHEAST LOWER MICHIGAN

CITY           SKY/WX    TMP DP  RH WIND       PRES   REMARKS
ADRIAN         CLOUDY    59  55  87 NE9       29.90R
ALMA           LGT RAIN  58  56  93 N10G16    29.99R
ANN ARBOR      PTSUNNY   60  56  86 E10       29.92R
BAD AXE        CLOUDY    59  55  85 NE5       30.00R
CARO           CLOUDY    63  57  81 E5        29.97R
DETROIT CITY   LGT RAIN  61  57  87 SW3       29.94S
DETROIT        LGT RAIN  59  57  93 E9        29.94R
FLINT          CLOUDY    59  53  80 NE9       29.96R
GROSSE ILE     CLOUDY    59  55  87 SE5       29.92R
HILLSDALE      LGT RAIN  54  50  87 N7        29.90R
HOWELL         DRIZZLE   56  54  92 NE7       29.93S

CITY           SKY/WX    TMP DP  RH WIND       PRES   REMARKS
JACKSON        LGT RAIN  54  53  97 NE8       29.93R
LAMBERTVILLE   CLOUDY    62  54  76 E3        29.91R
LANSING        CLOUDY    60  51  72 NE16      29.95R
LAPEER         FAIR      63  54  72 CALM      29.97R
MASON          LGT RAIN  56  51  82 NE10      29.94R
MONROE         CLOUDY    60  55  83 SE6       29.91R
MT. CLEMENS    CLOUDY    65  55  70 N5        29.93R
PONTIAC        LGT RAIN  59  54  83 SE7       29.94S
PORT HURON     CLOUDY    68  57  68 E3        29.94S
TRI CITIES     CLOUDY    62  59  90 NE14      30.00R THUNDER FOG
MIDLAND        LGT RAIN  60  55  82 N6        29.99R
TROY           DRIZZLE   61  56  83 CALM      29.96S
SAGINAW HB     CLOUDY    61  55  82 N3        29.97S
$$
MIZ043>046-050>051-056>058-064>065-071>073-077>080-282100-
SOUTHWEST LOWER MICHIGAN

CITY           SKY/WX    TMP DP  RH WIND       PRES   REMARKS
BATTLE CREEK   CLOUDY    57  48  72 NE17G25   29.93R
BENTON HARBOR  PTSUNNY   64  50  60 NE6       29.92R
BIG RAPIDS     PTSUNNY   65  45  48 E8        30.00R
COLDWATER      CLOUDY    59  49  68 NE14      29.91R
FREMONT        FAIR      66  43  42 NE16      29.98S
HOLLAND        PTSUNNY   65  50  58 E9        29.94R
GRAND RAPIDS   PTSUNNY   62  44  51 NE15      29.95R
IONIA          CLOUDY    60  50  69 NE14G20   29.95R
KALAMAZOO      CLOUDY    60  45  57 NE8G22    29.93R
LUDINGTON      CLOUDY    67  51  56 NE9       30.01R
MARSHALL       CLOUDY    55  52  87 NE8       29.93R
MOUNT PLEASANT RAIN      60  52  74 E12G20    30.00R
MUSKEGON       PTSUNNY   68  50  52 NE16      29.97R
SOUTH HAVEN    CLOUDY    62  55  77 N3        29.93R
$$
MIZ016>042-282100-
NORTHERN LOWER MICHIGAN

CITY           SKY/WX    TMP DP  RH WIND       PRES   REMARKS
ALPENA         SUNNY     68  51  54 NE16G22   30.08R
BEAVER ISLAND  SUNNY     63  54  71 NE12      30.12R
BELLAIRE       SUNNY     68  48  49 NE12G18   30.07R
CADILLAC       MOSUNNY   66  45  45 NE10      30.03R
CHARLEVOIX     SUNNY     64  51  63 NE10      30.12R
FRANKFORT      SUNNY     65  51  60 NE8G17    30.05R
GAYLORD        CLOUDY    64  48  56 NE10G20   30.08R
GRAYLING       MOSUNNY   64  51  63 NE10      30.07R
HARBOR SPRINGS SUNNY     65  51  59 NE9       30.10R
HOUGHTON LAKE  CLOUDY    64  48  56 NE12      30.04R
MANISTEE       MOSUNNY   67  49  52 NE9G18    30.03R
OSCODA         CLOUDY    62  56  81 NE8       30.03R
PELLSTON       SUNNY     66  50  56 NE13      30.11R
ROGERS CITY    SUNNY     64  55  73 N7        30.11R
TRAVERSE CITY  MOSUNNY   67  51  56 N12       30.04R
$$
MIZ007>008-015-282100-
EASTERN UPPER MICHIGAN

CITY           SKY/WX    TMP DP  RH WIND       PRES   REMARKS
KINROSS        MOSUNNY   65  50  58 E8        30.13R
MACKINAC ISLAN SUNNY     63  52  65 E8        30.11R
NEWBERRY       CLOUDY    60  54  80 NE8       30.14R
S. S. MARIE    SUNNY     67  50  54 VRB5      30.13R
MUNISING         N/A     62  55  77 NE20      30.15R
$$
MIZ004>006-011>014-085-282100-
CENTRAL UPPER MICHIGAN

CITY           SKY/WX    TMP DP  RH WIND       PRES   REMARKS
MANISTIQUE     MOSUNNY   65  53  66 E12       30.12R
ESCANABA       MOSUNNY   64  51  62 NE12      30.12R
MENOMINEE      SUNNY     62  52  69 E16       30.11R
SAWYER-GWINN   CLOUDY    57  52  82 NE15      30.17R
$$
MIZ001>003-009>011-084-282100-
WESTERN UPPER MICHIGAN

CITY           SKY/WX    TMP DP  RH WIND       PRES   REMARKS
IRON MOUNTAIN  CLOUDY    61  49  64 N12       30.13R
HOUGHTON       CLOUDY    58  48  69 NE7       30.20R
COPPER HARBOR    N/A     58  51  78 E12       30.21R
IRONWOOD       LGT RAIN  56  54  93 NE8       30.22R
$$

ABBREVIATIONS USED IN REMARKS
   TC - TEMPERATURE IN CELSIUS
  WCI - WIND CHILL INDEX
   HX - HEAT INDEX
  VSB - VISIBILITY





USA.gov is the U.S. government's official web portal to all federal, state and local government web resources and services.